Regional Weather Roundup
Issued by NWS Sterling, VA

Home | Current Version | Previous Version | Graphics & Text | Print | Product List | Glossary On
Versions: 1 2 3 4 5 6 7 8 9 10 11 12 13 14 15 16 17 18 19 20 21 22 23 24 25 26 27 28 29 30 31 32 33 34 35 36 37 38 39 40 41 42 43 44 45 46 47 48 49 50
000
ASUS41 KLWX 140411
RWRLWX

REGIONAL WEATHER ROUNDUP
NATIONAL WEATHER SERVICE BALTIMORE MD/WASHINGTON DC
1100 PM EST WED DEC 13 2017

Note: "FAIR" indicates few or no clouds below 12,000 feet
with no significant weather and/or obstructions to visibility.
 TC=TEMPERATURE CELSIUS

 * =Non NWS site. Station does not report precipitation (e.g. rain,
    snow, etc.), thunder, or fog.

DCZ001-MDZ009-015-VAZ040>042-051-053>054-140500-
WASHINGTON METRO

CITY           SKY/WX    TMP DP  RH WIND       PRES   REMARKS
WASHINGTON NAT CLOUDY    36  15  42 S15       29.63F WCI  27
DULLES         CLOUDY    34  12  40 S9        29.60F WCI  27
ANDREWS AFB    PTCLDY    35  12  39 S12       29.61F WCI  26
FT BELVOIR     CLOUDY    35  11  37 S7        29.63F
QUANTICO       CLOUDY    38  19  46 S16       29.65F WCI  29
COLLEGE PARK*  CLOUDY    34  11  39 S3        29.63F
LEESBURG*      CLOUDY    34  14  44 S6        29.60F
MANASSAS*      CLOUDY    34  13  41 S8        29.61F WCI  27
GAITHERSBURG*  CLOUDY    30  19  63 SE5       29.59F

$$

MDZ006>007-011-014-140500-
BALTIMORE METRO

CITY           SKY/WX    TMP DP  RH WIND       PRES   REMARKS
BWI AIRPORT    CLOUDY    30  21  69 E7        29.63F
MD SCIENCE CTR   N/A     32  22  66 MISG      29.65F
MARTIN STATE   CLOUDY    30  30 100 CALM      29.68F
ANNAPOLIS      CLOUDY    35  17  47 S10       29.64F WCI  27
FORT MEADE*    CLOUDY    30  18  59 E5        29.65F

$$

MDZ012-015-019>023-140500-
MARYLAND EASTERN SHORE

CITY           SKY/WX    TMP DP  RH WIND       PRES   REMARKS
OCEAN CITY     LGT SNOW  33  27  78 SW14G23   29.73F WCI  23
SALISBURY      LGT SNOW  32  28  85 S10       29.72S FOG     WCI  24
BAY BRIDGE AP* CLOUDY    37  18  44 S9G17     29.65F
CAMBRIDGE*     CLOUDY    36  19  51 S10       29.69F WCI  28
EASTON*        CLOUDY    35  17  48 S7        29.71F

$$

MDZ017>025-140500-
SOUTHERN MARYLAND

CITY           SKY/WX    TMP DP  RH WIND       PRES   REMARKS
PATUXENT RIVER CLOUDY    37  18  46 S12G22    29.67F
ST INIGOES     CLOUDY    37  18  46 S15G22    29.68F WCI  28
LEONARDTOWN*   CLOUDY    34  18  51 S6        29.68F

$$

MDZ003>005-140500-
NORTH CENTRAL MARYLAND

CITY           SKY/WX    TMP DP  RH WIND       PRES   REMARKS
FREDERICK*     CLOUDY    30  23  74 CALM      29.62F
HAGERSTOWN APT CLOUDY    27  23  85 NW3       29.55F
WESTMINSTER*   CLOUDY    27  25  93 SE8       29.56F WCI  18

$$

MDZ501>502-140500-
WESTERN MARYLAND

CITY           SKY/WX    TMP DP  RH WIND       PRES   REMARKS
OAKLAND*       CLOUDY    27  21  80 SW15G25   29.37F WCI  15
CUMBERLAND*    CLOUDY    28  27  93 CALM      29.58F

$$

VAZ025>031-140500-
SHENANDOAH VALLEY

CITY           SKY/WX    TMP DP  RH WIND       PRES   REMARKS
WINCHESTER*    CLOUDY    32  12  43 CALM      29.55S
FRONT ROYAL*   CLOUDY    34  14  44 S3        29.53F
LURAY*         CLOUDY    34  14  44 SW8       29.54F WCI  27
NEW MARKET*    CLOUDY    33  12  41 SW8       29.54F WCI  26
STAUNTON*      CLOUDY    33  13  45 S9        29.57F WCI  25
WAYNESBORO*    CLOUDY    33  13  42 W3        29.56S

$$

WVZ021-048>050-054>055-140500-
EASTERN WEST VIRGINIA PANHANDLE

CITY           SKY/WX    TMP DP  RH WIND       PRES   REMARKS
MARTINSBURG    CLOUDY    27  24  89 NW3       29.55F
PETERSBURG*    CLOUDY    32  22  67 CALM      29.50F

$$

VAZ036>039-050-140500-
CENTRAL FOOTHILLS

CITY           SKY/WX    TMP DP  RH WIND       PRES   REMARKS
CHARLOTTESVILL CLOUDY    34  13  41 S8        29.58F WCI  27
CULPEPER*      CLOUDY    35  10  35 S6        29.61F
ORANGE*        CLOUDY    32  12  43 CALM      29.60F
GORDONSVILLE*  CLOUDY    31  16  55 CALM      29.60F
WARRENTON*     CLOUDY    36   8  31 S5        29.60F

$$

VAZ055>057-140500-
NORTH AND CENTRAL PIEDMONT

CITY           SKY/WX    TMP DP  RH WIND       PRES   REMARKS
FREDERICKSBRG* PTCLDY    36  15  42 S7        29.63F
STAFFORD*      PTCLDY    34  11  39 S7        29.67F

$$

NCZ024-NYZ072-PAZ021-071-VAZ022-071-140500-
OTHER REGIONAL OBSERVATIONS

CITY           SKY/WX    TMP DP  RH WIND       PRES   REMARKS
NEW YORK CITY  CLOUDY    27   6  41 VRB5G17   29.68F
PHILADELPHIA   LGT SNOW  27  24  89 S8        29.71S VSB 3/4 WCI  19
PITTSBURGH     LGT SNOW  24  21  88 S7        29.41S FOG
ROANOKE        CLOUDY    39  15  37 W9        29.61F
RICHMOND       PTCLDY    39  15  37 S14       29.67F
RALEIGH        PTCLDY    38  18  44 SW13G24   29.73F

$$

ANZ530>537-140500-
MARINE OBSERVATIONS

STATION/POSITION TIME  TEMP    WIND        PRES
                       AIR SEA DIR/SP/G
                 (UTC) (F)     (DEG/KT/KT) (MB)
THOMAS PT LIGHT  0400   38 44  190/ 23/ 27   N/A
BALT KEY BRIDGE  0348   33     140/  5/  7 1004.0F
COVE POINT       0348   37     200/ 18/ 25 1005.2F
LEWISETTA        0348   37 41  210/ 10/ 12 1005.4F
SOLOMONS ISLAND  0312   37 47  190/ 12/ 14 1005.1
PINEY POINT      0336          200/ 16/ 19   N/A

$$




USA.gov is the U.S. government's official web portal to all federal, state and local government web resources and services.